Language: 


Des rapports , des résumés tant et plus, au choix de chacun....


Données Historiques de Météogheer
Journalier Rapport pour Décembre 16, 2017 Unitée:  Métrique    Impériale   Les deux
Suivant Jour »
Journalier Hebdomadaire Mensuel Annuel Sur mesure
  Max: Min: Moyenne:
Température: 6.1 °C 0.0 °C 2.6 °C
Point de rosée: 6.0 °C 0.0 °C 3.2 °C
Humidité: 98% 0% 76%
Vent: 16.6km/h 0.0km/h 3.2km/h
Rafales: 20.1km/h - -
Vent- - West
Pression: 1019.9 hPa 0.0 hPa -
Pluie: 3.3 mm    
Historical Graphs
 
 
Données tabulaires pour Décembre 16, 2017
Heure Température Point de rosée Pression Vent Vent Rafales Humidité Pluie Taux (Horaire) Conditions
00:01 3.2 °C 3.0 °C 1003.9 hPa Calm   4.3 km/h 98% 0.0 mm
00:06 3.2 °C 3.0 °C 1003.9 hPa Calm   4.0 km/h 98% 0.0 mm
00:08 3.2 °C 3.0 °C 1003.9 hPa Calm   4.0 km/h 98% 0.0 mm
00:10 3.8 °C 4.0 °C 1003.9 hPa Calm   7.6 km/h 98% 0.0 mm
00:14 3.8 °C 4.0 °C 1005.0 hPa Calm   7.6 km/h 98% 0.0 mm
00:17 3.8 °C 4.0 °C 1005.0 hPa Calm   7.6 km/h 98% 0.0 mm
00:22 3.8 °C 4.0 °C 1005.0 hPa NNW 6.9 km/h 6.9 km/h 98% 0.0 mm
00:24 3.8 °C 4.0 °C 1005.0 hPa West 5.8 km/h 10.1 km/h 98% 0.0 mm
00:28 3.8 °C 4.0 °C 1005.0 hPa WNW 9.7 km/h 10.1 km/h 98% 0.0 mm
00:29 3.8 °C 4.0 °C 1005.0 hPa NW 6.4 km/h 10.1 km/h 98% 0.0 mm
00:34 3.8 °C 4.0 °C 1005.0 hPa NW 5.5 km/h 10.1 km/h 98% 0.0 mm
00:35 3.8 °C 4.0 °C 1005.0 hPa North 6.9 km/h 10.1 km/h 98% 0.0 mm
00:40 3.8 °C 4.0 °C 1005.0 hPa Calm   12.6 km/h 98% 0.0 mm
00:45 3.8 °C 4.0 °C 1005.0 hPa WNW 1.8 km/h 12.6 km/h 98% 0.0 mm
00:47 3.8 °C 4.0 °C 1005.0 hPa Calm   12.6 km/h 98% 0.0 mm
00:52 3.8 °C 4.0 °C 1005.0 hPa Calm   6.1 km/h 98% 0.0 mm
00:57 3.8 °C 4.0 °C 1005.0 hPa Calm   5.5 km/h 98% 0.3 mm
01:01 3.8 °C 4.0 °C 1005.0 hPa Calm   4.0 km/h 98% 0.3 mm
01:02 3.8 °C 4.0 °C 1005.0 hPa Calm   4.0 km/h 98% 0.3 mm
01:07 3.8 °C 4.0 °C 1005.0 hPa NNW 1.4 km/h 7.2 km/h 98% 0.3 mm
01:09 3.8 °C 4.0 °C 1005.0 hPa Calm   7.2 km/h 98% 0.5 mm
01:13 3.8 °C 4.0 °C 1003.9 hPa Calm   6.4 km/h 98% 0.5 mm
01:19 3.8 °C 4.0 °C 1003.9 hPa NW 2.6 km/h 6.4 km/h 98% 0.5 mm
01:20 3.8 °C 4.0 °C 1003.9 hPa Calm   6.4 km/h 98% 0.5 mm
01:24 3.8 °C 4.0 °C 1003.9 hPa Calm   2.6 km/h 98% 0.5 mm
01:29 3.8 °C 4.0 °C 1005.0 hPa West 6.1 km/h 6.1 km/h 98% 0.5 mm
01:32 3.8 °C 4.0 °C 1005.0 hPa NNW 4.7 km/h 6.1 km/h 98% 0.5 mm
01:35 3.8 °C 4.0 °C 1005.0 hPa Calm   6.1 km/h 98% 0.5 mm
01:38 3.8 °C 4.0 °C 1005.0 hPa Calm   6.1 km/h 98% 0.5 mm
01:40 3.8 °C 4.0 °C 1005.0 hPa Calm   6.1 km/h 98% 0.5 mm
01:45 3.8 °C 4.0 °C 1005.0 hPa Calm   1.4 km/h 98% 0.5 mm
01:46 3.8 °C 4.0 °C 1005.0 hPa Calm   1.4 km/h 98% 0.5 mm
01:51 3.8 °C 4.0 °C 1005.0 hPa Calm   1.4 km/h 98% 0.5 mm
01:53 3.8 °C 4.0 °C 1005.0 hPa Calm   1.4 km/h 98% 0.5 mm
01:55 3.8 °C 4.0 °C 1005.0 hPa Calm   1.4 km/h 98% 0.8 mm
01:58 3.8 °C 4.0 °C 1005.0 hPa Calm   1.4 km/h 98% 0.5 mm
02:03 3.8 °C 4.0 °C 1005.0 hPa Calm     98% 0.5 mm
02:05 3.8 °C 4.0 °C 1005.0 hPa Calm     98% 0.5 mm
02:07 3.8 °C 4.0 °C 1005.0 hPa Calm     98% 0.5 mm
02:12 3.8 °C 4.0 °C 1006.0 hPa Calm   1.4 km/h 98% 0.3 mm
02:13 3.8 °C 4.0 °C 1006.0 hPa Calm   1.4 km/h 98% 0.3 mm
02:16 3.8 °C 4.0 °C 1006.0 hPa Calm   1.8 km/h 98% 0.3 mm
02:20 3.8 °C 4.0 °C 1006.0 hPa Calm   7.2 km/h 98% 0.3 mm
02:22 3.8 °C 4.0 °C 1006.0 hPa Calm   7.2 km/h 98% 0.3 mm
02:25 3.8 °C 4.0 °C 1006.0 hPa Calm   7.2 km/h 98% 0.3 mm
02:30 3.8 °C 4.0 °C 1006.0 hPa Calm   1.4 km/h 98% 0.3 mm
02:35 3.8 °C 4.0 °C 1006.0 hPa Calm     98% 0.3 mm
02:36 3.8 °C 4.0 °C 1006.0 hPa Calm   3.5 km/h 98% 0.3 mm
02:37 3.8 °C 4.0 °C 1006.0 hPa Calm   3.5 km/h 98% 0.3 mm
02:42 3.8 °C 4.0 °C 1006.0 hPa Calm   3.5 km/h 98% 0.3 mm
02:47 3.8 °C 4.0 °C 1006.0 hPa Calm     98% 0.3 mm
02:48 3.8 °C 4.0 °C 1006.0 hPa Calm     98% 0.3 mm
02:53 3.8 °C 4.0 °C 1006.0 hPa Calm     98% 0.3 mm
02:55 3.8 °C 4.0 °C 1006.0 hPa Calm   3.5 km/h 98% 0.0 mm
03:02 0.0 °C 4.0 °C 0.0 hPa Calm   3.5 km/h 0% 0.0 mm
03:03 0.0 °C 4.0 °C 1006.0 hPa Calm   3.5 km/h 0% 0.0 mm
03:08 0.0 °C 4.0 °C 1006.0 hPa NNW 1.4 km/h 3.5 km/h 0% 0.0 mm
03:10 0.0 °C 4.0 °C 1006.0 hPa Calm   3.5 km/h 0% 0.0 mm
03:15 0.0 °C 4.0 °C 1007.0 hPa Calm   4.0 km/h 0% 0.0 mm
03:16 0.0 °C 4.0 °C 1007.0 hPa Calm   4.0 km/h 0% 0.0 mm
03:21 0.0 °C 4.0 °C 1007.0 hPa Calm     0% 0.0 mm
03:25 0.0 °C 4.0 °C 1007.0 hPa Calm   4.0 km/h 0% 0.0 mm
03:30 0.0 °C 4.0 °C 1007.0 hPa Calm   5.5 km/h 0% 0.0 mm
03:31 0.0 °C 4.0 °C 1007.0 hPa Calm   5.5 km/h 0% 0.0 mm
03:36 0.0 °C 4.0 °C 1007.0 hPa NNE 5.0 km/h 9.3 km/h 0% 0.0 mm
03:38 0.0 °C 4.0 °C 1007.0 hPa NE 2.1 km/h 9.3 km/h 0% 0.0 mm
03:40 0.0 °C 4.0 °C 1007.0 hPa North 12.2 km/h 17.7 km/h 0% 0.0 mm
03:44 0.0 °C 4.0 °C 1007.0 hPa North 5.8 km/h 17.7 km/h 0% 0.0 mm
03:49 0.0 °C 4.0 °C 1007.0 hPa Calm   17.7 km/h 0% 0.0 mm
03:50 0.0 °C 4.0 °C 1007.0 hPa North 4.7 km/h 17.7 km/h 0% 0.0 mm
03:56 0.0 °C 4.0 °C 1007.0 hPa North 5.0 km/h 12.2 km/h 0% 0.0 mm
04:00 0.0 °C 4.0 °C 1007.0 hPa NNW 6.9 km/h 14.0 km/h 0% 0.0 mm
04:05 0.0 °C 4.0 °C 1007.0 hPa North 4.7 km/h 14.0 km/h 0% 0.0 mm
04:07 0.0 °C 4.0 °C 1007.0 hPa Calm   14.0 km/h 0% 0.0 mm
04:12 0.0 °C 4.0 °C 1007.0 hPa NNE 5.0 km/h 9.0 km/h 0% 0.0 mm
04:17 0.0 °C 4.0 °C 1007.0 hPa NNE 8.7 km/h 9.3 km/h 0% 0.0 mm
04:18 0.0 °C 4.0 °C 1007.0 hPa NNW 2.6 km/h 9.3 km/h 0% 0.0 mm
04:23 0.0 °C 4.0 °C 1007.0 hPa North 4.0 km/h 12.2 km/h 0% 0.0 mm
04:26 0.0 °C 4.0 °C 1007.0 hPa WNW 2.6 km/h 12.2 km/h 0% 0.0 mm
04:28 0.0 °C 4.0 °C 1007.0 hPa Calm   12.2 km/h 0% 0.0 mm
04:33 0.0 °C 4.0 °C 1007.0 hPa Calm   7.9 km/h 0% 0.0 mm
04:34 0.0 °C 4.0 °C 1007.0 hPa NNE 3.2 km/h 7.9 km/h 0% 0.0 mm
04:39 0.0 °C 4.0 °C 1007.0 hPa Calm   7.9 km/h 0% 0.0 mm
04:40 0.0 °C 4.0 °C 1008.0 hPa Calm   7.9 km/h 0% 0.0 mm
04:45 0.0 °C 4.0 °C 1008.0 hPa West 5.0 km/h 9.7 km/h 0% 0.0 mm
04:46 0.0 °C 4.0 °C 1008.0 hPa NW 1.4 km/h 9.7 km/h 0% 0.0 mm
04:48 0.0 °C 4.0 °C 1008.0 hPa Calm   9.7 km/h 0% 0.0 mm
04:53 0.0 °C 4.0 °C 1008.0 hPa Calm   11.9 km/h 0% 0.0 mm
04:56 0.0 °C 4.0 °C 1009.0 hPa North 5.0 km/h 13.0 km/h 0% 0.0 mm
05:01 0.0 °C 4.0 °C 1009.0 hPa NE 1.8 km/h 13.0 km/h 0% 0.0 mm
05:04 0.0 °C 4.0 °C 1009.0 hPa NNW 6.4 km/h 13.0 km/h 0% 0.0 mm
05:06 0.0 °C 4.0 °C 1009.0 hPa Calm   10.5 km/h 0% 0.0 mm
05:09 0.0 °C 4.0 °C 1009.0 hPa West 1.4 km/h 9.3 km/h 0% 0.0 mm
05:14 0.0 °C 4.0 °C 1009.0 hPa Calm   5.8 km/h 0% 0.0 mm
05:15 0.0 °C 4.0 °C 1009.0 hPa Calm   5.8 km/h 0% 0.0 mm
05:19 0.0 °C 4.0 °C 1009.0 hPa NNW 6.4 km/h 6.4 km/h 0% 0.0 mm
05:22 0.0 °C 4.0 °C 1009.0 hPa NNW 2.6 km/h 6.4 km/h 0% 0.0 mm
05:27 0.0 °C 4.0 °C 1009.0 hPa Calm   6.9 km/h 0% 0.0 mm
05:29 0.0 °C 4.0 °C 1009.0 hPa Calm   7.6 km/h 0% 0.0 mm
05:34 0.0 °C 4.0 °C 1009.0 hPa North 1.4 km/h 7.6 km/h 0% 0.0 mm
05:37 0.0 °C 4.0 °C 1009.0 hPa NNW 3.2 km/h 9.0 km/h 0% 0.0 mm
05:42 0.0 °C 4.0 °C 1009.0 hPa NW 1.4 km/h 10.5 km/h 0% 0.0 mm
05:43 0.0 °C 4.0 °C 1009.0 hPa Calm   10.5 km/h 0% 0.0 mm
05:45 0.0 °C 4.0 °C 1009.0 hPa Calm   10.5 km/h 0% 0.0 mm
05:49 0.0 °C 4.0 °C 1009.0 hPa Calm   9.7 km/h 0% 0.0 mm
05:53 0.0 °C 4.0 °C 1009.0 hPa NW 4.0 km/h 5.8 km/h 0% 0.0 mm
05:55 0.0 °C 4.0 °C 1009.0 hPa Calm   4.0 km/h 0% 0.0 mm
06:00 0.0 °C 4.0 °C 1009.0 hPa Calm   7.6 km/h 0% 0.0 mm
06:02 0.0 °C 4.0 °C 1009.0 hPa NNW 3.5 km/h 7.6 km/h 0% 0.0 mm
06:07 0.0 °C 4.0 °C 1009.0 hPa Calm   7.6 km/h 0% 0.0 mm
06:08 0.0 °C 4.0 °C 1009.0 hPa Calm   7.6 km/h 0% 0.0 mm
06:13 0.0 °C 4.0 °C 1009.0 hPa North 4.0 km/h 12.2 km/h 0% 0.0 mm
06:16 0.0 °C 4.0 °C 1009.0 hPa Calm   12.2 km/h 0% 0.0 mm
06:17 0.0 °C 4.0 °C 1009.0 hPa WNW 2.6 km/h 12.2 km/h 0% 0.0 mm
06:22 0.0 °C 4.0 °C 1009.0 hPa Calm   6.9 km/h 0% 0.0 mm
06:24 0.0 °C 4.0 °C 1009.0 hPa Calm   6.9 km/h 0% 0.0 mm
06:29 0.0 °C 4.0 °C 1009.0 hPa Calm   6.4 km/h 0% 0.0 mm
06:31 0.0 °C 4.0 °C 1009.0 hPa Calm   9.0 km/h 0% 0.0 mm
06:36 0.0 °C 4.0 °C 1009.0 hPa NE 2.1 km/h 9.0 km/h 0% 0.0 mm
06:37 0.0 °C 4.0 °C 1009.0 hPa Calm   9.0 km/h 0% 0.0 mm
06:42 0.0 °C 4.0 °C 1009.0 hPa Calm   7.6 km/h 0% 0.0 mm
06:45 0.0 °C 4.0 °C 1009.0 hPa Calm   3.5 km/h 0% 0.0 mm
06:49 0.0 °C 4.0 °C 1009.0 hPa Calm     0% 0.0 mm
06:54 0.0 °C 4.0 °C 1009.0 hPa Calm     0% 0.0 mm
06:59 0.0 °C 4.0 °C 1010.0 hPa West 6.4 km/h 6.4 km/h 0% 0.0 mm
07:01 0.0 °C 4.0 °C 1010.0 hPa Calm   6.4 km/h 0% 0.0 mm
07:04 0.0 °C 4.0 °C 1010.0 hPa WNW 5.5 km/h 7.9 km/h 0% 0.0 mm
07:09 0.0 °C 4.0 °C 1010.0 hPa SSW 3.2 km/h 7.9 km/h 0% 0.0 mm
07:10 0.0 °C 4.0 °C 1010.0 hPa WNW 1.8 km/h 7.9 km/h 0% 0.0 mm
07:14 0.0 °C 4.0 °C 1010.0 hPa Calm   6.9 km/h 0% 0.0 mm
07:18 0.0 °C 4.0 °C 1010.0 hPa WNW 4.3 km/h 6.9 km/h 0% 0.0 mm
07:23 0.0 °C 4.0 °C 1010.0 hPa NNW 2.1 km/h 6.1 km/h 0% 0.0 mm
07:24 0.0 °C 4.0 °C 1010.0 hPa Calm   6.1 km/h 0% 0.0 mm
07:29 0.0 °C 4.0 °C 1010.0 hPa Calm   5.0 km/h 0% 0.0 mm
07:33 0.0 °C 4.0 °C 1010.0 hPa South 1.8 km/h 5.8 km/h 0% 0.0 mm
07:38 0.0 °C 4.0 °C 1010.0 hPa Calm   8.7 km/h 0% 0.0 mm
07:42 0.0 °C 4.0 °C 1011.1 hPa Calm   8.7 km/h 0% 0.0 mm
07:46 0.0 °C 4.0 °C 1011.1 hPa NW 2.1 km/h 10.1 km/h 0% 0.0 mm
07:51 0.0 °C 4.0 °C 1011.1 hPa Calm   10.1 km/h 0% 0.0 mm
07:53 0.0 °C 4.0 °C 1011.1 hPa WNW 4.3 km/h 10.1 km/h 0% 0.0 mm
07:58 4.4 °C 4.0 °C 1011.1 hPa Calm   12.6 km/h 98% 0.0 mm
08:03 4.4 °C 4.0 °C 1011.1 hPa West 2.1 km/h 12.2 km/h 98% 0.0 mm
08:04 4.4 °C 4.0 °C 1011.1 hPa Calm   12.2 km/h 98% 0.0 mm
08:08 4.4 °C 4.0 °C 1011.1 hPa WNW 3.2 km/h 10.1 km/h 98% 0.0 mm
08:11 4.4 °C 4.0 °C 1010.0 hPa NNW 3.2 km/h 9.7 km/h 98% 0.0 mm
08:14 4.4 °C 4.0 °C 1010.0 hPa Calm   9.7 km/h 98% 0.0 mm
08:17 4.4 °C 4.0 °C 1010.0 hPa Calm   7.9 km/h 98% 0.0 mm
08:22 4.4 °C 4.0 °C 1010.0 hPa Calm   7.9 km/h 98% 0.0 mm
08:23 4.4 °C 4.0 °C 1010.0 hPa Calm   7.9 km/h 98% 0.0 mm
08:28 4.4 °C 4.0 °C 1011.1 hPa West 4.3 km/h 5.8 km/h 98% 0.0 mm
08:32 4.4 °C 4.0 °C 1011.1 hPa West 8.7 km/h 8.7 km/h 98% 0.0 mm
08:37 4.4 °C 4.0 °C 1011.1 hPa Calm   10.1 km/h 98% 0.0 mm
08:40 4.4 °C 4.0 °C 1011.1 hPa Calm   10.1 km/h 98% 0.0 mm
08:43 4.4 °C 4.0 °C 1011.1 hPa Calm   8.7 km/h 98% 0.0 mm
08:46 4.4 °C 4.0 °C 1011.1 hPa North 1.8 km/h 8.7 km/h 98% 0.0 mm
08:51 4.4 °C 4.0 °C 1011.1 hPa NNW 1.4 km/h 9.3 km/h 98% 0.0 mm
08:52 4.4 °C 4.0 °C 1011.1 hPa Calm   9.3 km/h 98% 0.0 mm
08:57 4.4 °C 4.0 °C 1012.1 hPa Calm   12.6 km/h 98% 0.0 mm
09:00 4.4 °C 4.0 °C 1012.1 hPa Calm   12.6 km/h 98% 0.0 mm
09:05 4.2 °C 4.0 °C 1012.1 hPa Calm   5.8 km/h 98% 0.0 mm
09:07 4.2 °C 4.0 °C 1012.1 hPa Calm   5.8 km/h 98% 0.0 mm
09:13 4.3 °C 4.0 °C 1013.1 hPa WNW 4.3 km/h 6.9 km/h 98% 0.0 mm
09:18 4.3 °C 4.0 °C 1013.1 hPa NNW 5.0 km/h 6.9 km/h 98% 0.0 mm
09:19 4.3 °C 4.0 °C 1013.1 hPa NNE 4.3 km/h 6.9 km/h 98% 0.0 mm
09:24 4.3 °C 4.0 °C 1013.1 hPa Calm   14.0 km/h 98% 0.0 mm
09:25 4.3 °C 4.0 °C 1013.1 hPa West 2.6 km/h 14.0 km/h 98% 0.0 mm
09:30 4.3 °C 4.0 °C 1013.1 hPa East 3.5 km/h 10.1 km/h 98% 0.0 mm
09:32 4.3 °C 4.0 °C 1013.1 hPa West 6.4 km/h 7.6 km/h 98% 0.0 mm
09:37 4.3 °C 4.0 °C 1013.1 hPa NW 1.8 km/h 10.1 km/h 98% 0.0 mm
09:42 4.4 °C 4.0 °C 1013.1 hPa Calm   11.9 km/h 98% 0.0 mm
09:43 4.4 °C 4.0 °C 1013.1 hPa WNW 1.4 km/h 11.9 km/h 98% 0.0 mm
09:48 4.4 °C 4.0 °C 1013.1 hPa Calm   9.7 km/h 98% 0.0 mm
09:49 4.4 °C 4.0 °C 1013.1 hPa NW 4.3 km/h 9.7 km/h 98% 0.0 mm
09:53 4.5 °C 5.0 °C 1013.1 hPa Calm   9.7 km/h 98% 0.0 mm
09:58 4.6 °C 5.0 °C 1013.1 hPa Calm   8.7 km/h 98% 0.0 mm
10:03 4.6 °C 5.0 °C 1013.1 hPa WSW 3.2 km/h 11.9 km/h 98% 0.0 mm
10:05 4.6 °C 5.0 °C 1013.1 hPa WNW 7.2 km/h 11.9 km/h 98% 0.0 mm
10:06 4.6 °C 5.0 °C 1013.1 hPa Calm   11.9 km/h 98% 0.0 mm
10:11 4.5 °C 5.0 °C 1013.1 hPa Calm   9.7 km/h 98% 0.0 mm
10:13 4.5 °C 5.0 °C 1013.1 hPa NNW 5.5 km/h 15.1 km/h 98% 0.0 mm
10:18 4.5 °C 5.0 °C 1013.1 hPa West 5.8 km/h 15.1 km/h 98% 0.0 mm
10:19 4.5 °C 5.0 °C 1013.1 hPa WSW 9.3 km/h 15.1 km/h 98% 0.0 mm
10:25 4.6 °C 5.0 °C 1013.1 hPa NW 10.1 km/h 12.2 km/h 98% 0.0 mm
10:26 4.6 °C 5.0 °C 1014.1 hPa West 7.9 km/h 12.2 km/h 98% 0.0 mm
10:32 4.6 °C 5.0 °C 1014.1 hPa West 1.4 km/h 12.2 km/h 98% 0.0 mm
10:35 4.6 °C 5.0 °C 1014.1 hPa West 6.9 km/h 12.2 km/h 98% 0.0 mm
10:40 4.6 °C 5.0 °C 1014.1 hPa NW 3.2 km/h 11.9 km/h 98% 0.0 mm
10:41 4.6 °C 5.0 °C 1014.1 hPa NNW 1.4 km/h 11.9 km/h 98% 0.0 mm
10:46 5.1 °C 5.0 °C 1014.1 hPa NW 3.2 km/h 15.1 km/h 98% 0.0 mm
10:47 5.1 °C 5.0 °C 1014.1 hPa Calm   15.1 km/h 98% 0.0 mm
10:52 5.0 °C 5.0 °C 1014.1 hPa West 4.0 km/h 15.1 km/h 98% 0.0 mm
10:53 5.0 °C 5.0 °C 1014.1 hPa West 8.7 km/h 15.1 km/h 98% 0.0 mm
10:58 5.0 °C 5.0 °C 1014.1 hPa West 1.4 km/h 12.6 km/h 98% 0.0 mm
10:59 5.0 °C 5.0 °C 1014.1 hPa NW 5.0 km/h 10.5 km/h 98% 0.0 mm
11:04 4.9 °C 5.0 °C 1014.1 hPa WNW 7.9 km/h 11.9 km/h 98% 0.0 mm
11:05 4.9 °C 5.0 °C 1014.1 hPa West 2.1 km/h 11.9 km/h 98% 0.0 mm
11:07 5.1 °C 5.0 °C 1014.1 hPa NNW 5.0 km/h 11.9 km/h 98% 0.0 mm
11:11 5.1 °C 5.0 °C 1015.1 hPa WNW 10.1 km/h 12.2 km/h 98% 0.0 mm
11:13 5.1 °C 5.0 °C 1015.1 hPa WNW 6.9 km/h 12.2 km/h 98% 0.0 mm
11:18 5.6 °C 6.0 °C 1015.1 hPa SW 10.1 km/h 12.2 km/h 98% 0.0 mm
11:20 5.6 °C 6.0 °C 1015.1 hPa WSW 5.0 km/h 11.9 km/h 98% 0.0 mm
11:25 5.5 °C 6.0 °C 1015.1 hPa West 2.6 km/h 12.6 km/h 98% 0.0 mm
11:26 5.5 °C 6.0 °C 1015.1 hPa WNW 2.6 km/h 12.6 km/h 98% 0.0 mm
11:31 5.5 °C 6.0 °C 1015.1 hPa NNW 5.5 km/h 15.1 km/h 98% 0.0 mm
11:32 5.4 °C 6.0 °C 1015.1 hPa NW 6.4 km/h 15.1 km/h 98% 0.0 mm
11:35 5.4 °C 6.0 °C 1015.1 hPa WNW 7.9 km/h 15.1 km/h 98% 0.0 mm
11:38 5.4 °C 6.0 °C 1015.1 hPa West 4.3 km/h 15.1 km/h 98% 0.0 mm
11:43 5.3 °C 6.0 °C 1016.1 hPa WNW 9.3 km/h 11.1 km/h 98% 0.0 mm
11:44 5.3 °C 6.0 °C 1016.1 hPa NNE 4.3 km/h 10.5 km/h 98% 0.0 mm
11:49 5.3 °C 6.0 °C 1016.1 hPa WNW 3.5 km/h 9.7 km/h 98% 0.0 mm
11:53 5.3 °C 6.0 °C 1016.1 hPa Calm   9.0 km/h 98% 0.0 mm
11:58 5.3 °C 6.0 °C 1015.1 hPa West 4.3 km/h 9.3 km/h 98% 0.0 mm
12:03 5.2 °C 5.0 °C 1015.1 hPa WNW 4.7 km/h 9.3 km/h 98% 0.0 mm
12:08 5.1 °C 5.0 °C 1015.1 hPa West 3.5 km/h 7.9 km/h 98% 0.0 mm
12:09 5.1 °C 5.0 °C 1015.1 hPa West 2.6 km/h 7.9 km/h 98% 0.0 mm
12:13 5.1 °C 5.0 °C 1015.1 hPa West 9.3 km/h 9.3 km/h 98% 0.0 mm
12:18 5.1 °C 5.0 °C 1015.1 hPa NW 8.7 km/h 12.6 km/h 98% 0.0 mm
12:24 5.1 °C 5.0 °C 1015.1 hPa North 9.3 km/h 13.0 km/h 98% 0.0 mm
12:25 5.1 °C 5.0 °C 1015.1 hPa North 4.0 km/h 13.0 km/h 98% 0.0 mm
12:30 5.3 °C 6.0 °C 1015.1 hPa SSW 6.1 km/h 9.7 km/h 98% 0.0 mm
12:31 5.3 °C 6.0 °C 1015.1 hPa West 3.5 km/h 10.1 km/h 98% 0.0 mm
12:36 5.4 °C 6.0 °C 1015.1 hPa WNW 5.0 km/h 10.5 km/h 98% 0.0 mm
12:38 5.4 °C 6.0 °C 1015.1 hPa NW 9.0 km/h 10.5 km/h 98% 0.0 mm
12:40 5.4 °C 6.0 °C 1015.1 hPa NNW 6.9 km/h 11.1 km/h 98% 0.0 mm
12:44 5.5 °C 6.0 °C 1015.1 hPa SSW 9.3 km/h 12.6 km/h 97% 0.0 mm
12:49 5.7 °C 6.0 °C 1015.1 hPa West 8.7 km/h 13.7 km/h 97% 0.0 mm
12:50 5.7 °C 6.0 °C 1015.1 hPa North 6.1 km/h 13.7 km/h 97% 0.0 mm
12:55 6.1 °C 6.0 °C 1015.1 hPa WNW 2.6 km/h 13.7 km/h 97% 0.0 mm
13:00 6.1 °C 6.0 °C 1015.1 hPa West 9.0 km/h 14.0 km/h 96% 0.0 mm
13:02 6.0 °C 6.0 °C 1015.1 hPa West 2.6 km/h 14.0 km/h 96% 0.0 mm
13:06 6.0 °C 6.0 °C 1015.1 hPa SW 7.9 km/h 14.0 km/h 95% 0.0 mm
13:08 6.0 °C 6.0 °C 1015.1 hPa NW 9.3 km/h 14.0 km/h 95% 0.0 mm
13:13 5.8 °C 5.0 °C 1015.1 hPa North 5.0 km/h 15.8 km/h 94% 0.0 mm
13:14 5.8 °C 5.0 °C 1015.1 hPa West 10.1 km/h 15.8 km/h 93% 0.0 mm
13:16 5.8 °C 5.0 °C 1015.1 hPa West 1.4 km/h 15.8 km/h 93% 0.0 mm
13:21 5.8 °C 5.0 °C 1015.1 hPa SSW 9.3 km/h 17.2 km/h 92% 0.0 mm
13:23 5.8 °C 5.0 °C 1015.1 hPa WNW 11.6 km/h 20.1 km/h 92% 0.0 mm
13:27 5.7 °C 5.0 °C 1015.1 hPa WNW 4.3 km/h 20.1 km/h 92% 0.0 mm
13:29 5.7 °C 5.0 °C 1015.1 hPa West 10.1 km/h 20.1 km/h 92% 0.0 mm
13:34 5.8 °C 5.0 °C 1015.1 hPa NNW 10.1 km/h 12.2 km/h 93% 0.0 mm
13:37 5.8 °C 5.0 °C 1015.1 hPa West 2.6 km/h 10.1 km/h 93% 0.0 mm
13:42 5.7 °C 5.0 °C 1015.1 hPa WNW 4.3 km/h 10.1 km/h 93% 0.0 mm
13:43 5.7 °C 5.0 °C 1015.1 hPa West 2.1 km/h 10.1 km/h 93% 0.0 mm
13:44 5.7 °C 5.0 °C 1015.1 hPa West 6.1 km/h 9.0 km/h 93% 0.0 mm
13:49 5.6 °C 5.0 °C 1015.1 hPa North 7.9 km/h 11.9 km/h 93% 0.0 mm
13:50 5.6 °C 5.0 °C 1015.1 hPa NW 7.9 km/h 11.9 km/h 92% 0.0 mm
13:51 5.6 °C 5.0 °C 1015.1 hPa West 4.7 km/h 11.9 km/h 92% 0.0 mm
13:56 5.6 °C 5.0 °C 1015.1 hPa NW 5.8 km/h 11.9 km/h 92% 0.0 mm
14:01 5.5 °C 5.0 °C 1015.1 hPa West 16.6 km/h 16.9 km/h 91% 0.0 mm
14:02 5.5 °C 5.0 °C 1015.1 hPa West 13.7 km/h 16.9 km/h 91% 0.0 mm
14:04 5.4 °C 4.0 °C 1015.1 hPa NNW 14.0 km/h 16.9 km/h 90% 0.0 mm
14:08 5.5 °C 4.0 °C 1015.1 hPa West 8.7 km/h 16.9 km/h 90% 0.0 mm
14:10 5.5 °C 4.0 °C 1015.1 hPa WNW 9.7 km/h 16.9 km/h 90% 0.0 mm
14:15 5.4 °C 4.0 °C 1015.1 hPa NNW 10.1 km/h 15.1 km/h 89% 0.0 mm
14:19 5.4 °C 4.0 °C 1015.1 hPa NNW 11.1 km/h 13.0 km/h 89% 0.0 mm
14:24 5.5 °C 4.0 °C 1015.1 hPa SSW 11.9 km/h 15.4 km/h 89% 0.0 mm
14:26 5.7 °C 4.0 °C 1015.1 hPa West 4.7 km/h 15.4 km/h 89% 0.0 mm
14:28 5.7 °C 4.0 °C 1015.1 hPa NW 11.6 km/h 15.4 km/h 90% 0.0 mm
14:33 5.6 °C 4.0 °C 1015.1 hPa West 12.6 km/h 16.9 km/h 88% 0.0 mm
14:35 5.6 °C 4.0 °C 1015.1 hPa West 9.3 km/h 16.9 km/h 88% 0.0 mm
14:36 5.6 °C 4.0 °C 1015.1 hPa SSW 9.0 km/h 16.9 km/h 88% 0.0 mm
14:41 5.5 °C 4.0 °C 1015.1 hPa West 13.0 km/h 16.9 km/h 87% 0.0 mm
14:42 5.4 °C 4.0 °C 1015.1 hPa West 9.7 km/h 16.9 km/h 87% 0.0 mm
14:47 5.3 °C 3.0 °C 1015.1 hPa WNW 7.9 km/h 16.6 km/h 86% 0.0 mm
14:48 5.3 °C 3.0 °C 1015.1 hPa WNW 6.4 km/h 16.6 km/h 86% 0.0 mm
14:49 5.3 °C 3.0 °C 1015.1 hPa West 5.0 km/h 15.4 km/h 86% 0.0 mm
14:54 5.2 °C 3.0 °C 1015.1 hPa SSW 6.9 km/h 12.6 km/h 87% 0.0 mm
14:56 5.2 °C 3.0 °C 1015.1 hPa WNW 9.7 km/h 12.6 km/h 87% 0.0 mm
14:58 5.2 °C 3.0 °C 1015.1 hPa WNW 5.0 km/h 12.6 km/h 87% 0.0 mm
15:02 5.1 °C 3.0 °C 1015.1 hPa West 9.3 km/h 13.0 km/h 87% 0.0 mm
15:07 5.1 °C 3.0 °C 1015.1 hPa West 10.8 km/h 17.7 km/h 88% 0.0 mm
15:12 5.0 °C 3.0 °C 1016.1 hPa West 7.9 km/h 17.7 km/h 88% 0.0 mm
15:15 5.0 °C 3.0 °C 1016.1 hPa WNW 9.7 km/h 13.7 km/h 88% 0.0 mm
15:20 5.0 °C 4.0 °C 1016.1 hPa West 7.9 km/h 12.6 km/h 89% 0.0 mm
15:21 5.0 °C 4.0 °C 1016.1 hPa NW 3.2 km/h 12.6 km/h 89% 0.0 mm
15:26 5.0 °C 4.0 °C 1016.1 hPa WNW 1.8 km/h 11.9 km/h 89% 0.0 mm
15:27 5.1 °C 4.0 °C 1016.1 hPa WNW 7.6 km/h 11.9 km/h 90% 0.0 mm
15:32 5.1 °C 4.0 °C 1016.1 hPa WSW 6.9 km/h 11.9 km/h 89% 0.0 mm
15:33 5.1 °C 4.0 °C 1016.1 hPa West 10.1 km/h 11.9 km/h 89% 0.0 mm
15:38 5.0 °C 3.0 °C 1016.1 hPa WNW 9.0 km/h 13.0 km/h 88% 0.0 mm
15:39 5.0 °C 3.0 °C 1016.1 hPa NNW 12.6 km/h 13.0 km/h 88% 0.0 mm
15:45 4.8 °C 3.0 °C 1016.8 hPa West 2.6 km/h 15.4 km/h 88% 0.0 mm
15:50 4.8 °C 3.0 °C 1016.8 hPa WNW 6.4 km/h 15.4 km/h 88% 0.0 mm
15:52 4.7 °C 3.0 °C 1016.8 hPa West 12.6 km/h 12.6 km/h 88% 0.0 mm
15:57 4.6 °C 3.0 °C 1016.8 hPa WNW 6.4 km/h 14.0 km/h 88% 0.0 mm
15:59 4.6 °C 3.0 °C 1016.8 hPa North 7.6 km/h 14.0 km/h 88% 0.0 mm
16:00 4.5 °C 3.0 °C 1016.8 hPa West 5.0 km/h 14.0 km/h 88% 0.0 mm
16:05 4.4 °C 3.0 °C 1016.8 hPa NW 3.2 km/h 14.0 km/h 88% 0.0 mm
16:06 4.4 °C 3.0 °C 1016.8 hPa West 5.5 km/h 11.6 km/h 88% 0.0 mm
16:07 4.4 °C 3.0 °C 1016.8 hPa West 5.5 km/h 12.2 km/h 88% 0.0 mm
16:12 4.3 °C 3.0 °C 1016.8 hPa NNW 6.4 km/h 12.2 km/h 88% 0.0 mm
16:14 4.3 °C 3.0 °C 1016.8 hPa West 6.4 km/h 12.2 km/h 88% 0.0 mm
16:19 4.2 °C 3.0 °C 1016.8 hPa WSW 9.7 km/h 13.7 km/h 88% 0.0 mm
16:23 4.1 °C 2.0 °C 1016.8 hPa NNW 8.7 km/h 13.7 km/h 88% 0.0 mm
16:27 4.1 °C 2.0 °C 1016.8 hPa NW 10.8 km/h 14.0 km/h 88% 0.0 mm
16:32 4.0 °C 3.0 °C 1016.8 hPa West 7.9 km/h 14.0 km/h 89% 0.0 mm
16:33 3.9 °C 3.0 °C 1016.8 hPa West 10.5 km/h 14.0 km/h 89% 0.0 mm
16:35 3.9 °C 3.0 °C 1016.8 hPa West 9.7 km/h 14.0 km/h 89% 0.0 mm
16:40 3.8 °C 2.0 °C 1016.8 hPa West 7.6 km/h 10.5 km/h 89% 0.0 mm
16:41 3.7 °C 2.0 °C 1016.1 hPa West 2.1 km/h 10.5 km/h 89% 0.0 mm
16:46 3.5 °C 2.0 °C 1016.1 hPa WSW 3.2 km/h 11.9 km/h 89% 0.0 mm
16:48 3.5 °C 2.0 °C 1016.1 hPa West 5.8 km/h 11.9 km/h 89% 0.0 mm
16:54 3.3 °C 2.0 °C 1016.1 hPa West 4.3 km/h 10.5 km/h 89% 0.0 mm
16:55 3.3 °C 2.0 °C 1016.1 hPa West 3.2 km/h 10.5 km/h 89% 0.0 mm
17:00 3.1 °C 2.0 °C 1016.8 hPa WSW 6.4 km/h 10.5 km/h 89% 0.0 mm
17:02 3.0 °C 2.0 °C 1016.8 hPa West 3.2 km/h 10.5 km/h 90% 0.0 mm
17:06 2.9 °C 2.0 °C 1016.8 hPa West 5.5 km/h 9.3 km/h 90% 0.0 mm
17:11 2.7 °C 1.0 °C 1016.1 hPa West 5.5 km/h 9.3 km/h 90% 0.0 mm
17:15 2.7 °C 2.0 °C 1016.1 hPa West 5.5 km/h 10.1 km/h 91% 0.0 mm
17:16 2.7 °C 2.0 °C 1016.1 hPa West 5.8 km/h 10.1 km/h 91% 0.0 mm
17:21 2.5 °C 2.0 °C 1016.1 hPa West 4.7 km/h 10.1 km/h 91% 0.0 mm
17:23 2.4 °C 1.0 °C 1016.1 hPa WSW 5.0 km/h 10.1 km/h 91% 0.0 mm
17:26 2.4 °C 1.0 °C 1016.8 hPa West 3.5 km/h 7.9 km/h 91% 0.0 mm
17:29 2.3 °C 1.0 °C 1016.8 hPa West 4.7 km/h 7.9 km/h 91% 0.0 mm
17:34 2.3 °C 1.0 °C 1016.8 hPa WSW 2.6 km/h 10.1 km/h 92% 0.0 mm
17:36 2.3 °C 1.0 °C 1016.8 hPa Calm   10.1 km/h 92% 0.0 mm
17:41 2.1 °C 1.0 °C 1016.8 hPa WNW 6.9 km/h 7.9 km/h 92% 0.0 mm
17:42 2.1 °C 1.0 °C 1016.8 hPa Calm   7.9 km/h 92% 0.0 mm
17:47 2.0 °C 1.0 °C 1016.8 hPa West 5.5 km/h 6.9 km/h 92% 0.0 mm
17:52 1.8 °C 1.0 °C 1016.8 hPa Calm   6.1 km/h 92% 0.0 mm
17:53 1.8 °C 1.0 °C 1016.8 hPa Calm   6.1 km/h 92% 0.0 mm
17:58 1.7 °C 1.0 °C 1016.8 hPa WSW 6.4 km/h 7.9 km/h 92% 0.0 mm
17:59 1.6 °C 1.0 °C 1016.8 hPa Calm   7.9 km/h 92% 0.0 mm
18:04 1.4 °C 0.0 °C 1016.8 hPa Calm   7.9 km/h 92% 0.0 mm
18:09 1.2 °C 0.0 °C 1016.8 hPa Calm   5.5 km/h 92% 0.0 mm
18:11 1.1 °C 0.0 °C 1016.8 hPa Calm     92% 0.0 mm
18:16 0.9 °C 0.0 °C 1016.8 hPa Calm     92% 0.0 mm
18:18 0.8 °C 0.0 °C 1016.8 hPa Calm   6.4 km/h 92% 0.0 mm
18:24 0.7 °C 0.0 °C 1016.8 hPa West 5.8 km/h 6.4 km/h 92% 0.0 mm
18:26 0.7 °C 0.0 °C 1016.8 hPa Calm   6.4 km/h 93% 0.0 mm
18:31 0.7 °C 0.0 °C 1016.8 hPa WSW 6.9 km/h 7.6 km/h 94% 0.0 mm
18:32 0.7 °C 0.0 °C 1016.8 hPa West 6.4 km/h 7.6 km/h 94% 0.0 mm
18:37 0.7 °C 0.0 °C 1016.8 hPa Calm   7.6 km/h 94% 0.0 mm
18:38 0.7 °C 0.0 °C 1016.8 hPa Calm   7.6 km/h 94% 0.0 mm
18:43 0.7 °C 0.0 °C 1018.2 hPa Calm   5.8 km/h 95% 0.0 mm
18:46 0.6 °C 0.0 °C 1018.2 hPa Calm   5.0 km/h 95% 0.0 mm
18:51 0.6 °C 0.0 °C 1018.2 hPa Calm     95% 0.0 mm
18:54 0.6 °C 0.0 °C 1018.2 hPa Calm     95% 0.0 mm
18:59 0.5 °C 0.0 °C 1018.2 hPa Calm     95% 0.0 mm
19:01 0.5 °C 0.0 °C 1018.2 hPa Calm     95% 0.0 mm
19:05 0.5 °C 0.0 °C 1018.2 hPa Calm     95% 0.0 mm
19:10 0.5 °C 1.0 °C 1018.2 hPa Calm     96% 0.0 mm
19:12 0.5 °C 1.0 °C 1018.2 hPa Calm     96% 0.0 mm
19:18 0.5 °C 1.0 °C 1018.2 hPa Calm     96% 0.0 mm
19:22 0.6 °C 1.0 °C 1018.2 hPa West 6.1 km/h 8.7 km/h 97% 0.0 mm
19:27 0.6 °C 1.0 °C 1018.2 hPa Calm   8.7 km/h 97% 0.0 mm
19:32 0.5 °C 1.0 °C 1018.2 hPa Calm   7.9 km/h 97% 0.0 mm
19:37 0.4 °C 0.0 °C 1018.2 hPa Calm   6.4 km/h 97% 0.0 mm
19:40 0.4 °C 0.0 °C 1018.2 hPa West 6.4 km/h 6.4 km/h 97% 0.0 mm
19:43 0.4 °C 0.0 °C 1018.2 hPa Calm   6.4 km/h 97% 0.0 mm
19:45 0.4 °C 0.0 °C 1018.2 hPa Calm   6.4 km/h 97% 0.0 mm
19:49 0.4 °C 0.0 °C 1018.2 hPa West 4.3 km/h 6.4 km/h 97% 0.0 mm
19:52 0.4 °C 0.0 °C 1018.2 hPa West 2.6 km/h 8.7 km/h 97% 0.0 mm
19:57 0.4 °C 0.0 °C 1018.2 hPa WSW 5.8 km/h 8.7 km/h 97% 0.0 mm
20:03 0.5 °C 1.0 °C 1018.2 hPa WSW 6.9 km/h 8.7 km/h 97% 0.0 mm
20:04 0.5 °C 1.0 °C 1018.2 hPa West 3.5 km/h 8.7 km/h 97% 0.0 mm
20:09 0.4 °C 0.0 °C 1018.2 hPa West 5.8 km/h 6.9 km/h 97% 0.0 mm
20:13 0.4 °C 1.0 °C 1018.2 hPa Calm   6.9 km/h 98% 0.0 mm
20:18 0.4 °C 1.0 °C 1018.2 hPa Calm   6.4 km/h 98% 0.0 mm
20:22 0.4 °C 1.0 °C 1018.2 hPa West 5.8 km/h 7.9 km/h 98% 0.0 mm
20:23 0.4 °C 1.0 °C 1018.2 hPa West 4.7 km/h 7.9 km/h 98% 0.0 mm
20:28 0.3 °C 1.0 °C 1018.8 hPa West 4.7 km/h 7.9 km/h 98% 0.0 mm
20:29 0.3 °C 1.0 °C 1018.8 hPa WSW 6.4 km/h 7.9 km/h 98% 0.0 mm
20:34 0.3 °C 0.0 °C 1018.8 hPa Calm   6.9 km/h 97% 0.0 mm
20:35 0.2 °C 0.0 °C 1018.8 hPa Calm   6.9 km/h 97% 0.0 mm
20:39 0.2 °C 0.0 °C 1018.8 hPa Calm   6.4 km/h 97% 0.0 mm
20:41 0.2 °C 0.0 °C 1018.8 hPa Calm   7.6 km/h 97% 0.0 mm
20:46 0.1 °C 0.0 °C 1018.8 hPa Calm   7.6 km/h 97% 0.0 mm
20:51 0.1 °C 0.0 °C 1018.8 hPa West 4.0 km/h 6.9 km/h 98% 0.0 mm
20:52 0.1 °C 0.0 °C 1018.8 hPa Calm   6.9 km/h 98% 0.0 mm
20:53 0.1 °C 0.0 °C 1018.8 hPa Calm   6.9 km/h 98% 0.0 mm
20:58 0.2 °C 0.0 °C 1018.8 hPa Calm   6.9 km/h 98% 0.0 mm
21:02 0.2 °C 0.0 °C 1018.8 hPa WSW 2.1 km/h 6.4 km/h 98% 0.0 mm
21:07 0.2 °C 0.0 °C 1018.8 hPa Calm   6.4 km/h 98% 0.0 mm
21:09 0.2 °C 0.0 °C 1018.8 hPa WSW 5.5 km/h 6.4 km/h 98% 0.0 mm
21:14 0.2 °C 0.0 °C 1018.8 hPa Calm   6.9 km/h 98% 0.0 mm
21:18 0.3 °C 1.0 °C 1018.8 hPa WSW 5.8 km/h 6.9 km/h 98% 0.0 mm
21:21 0.3 °C 1.0 °C 1018.8 hPa WSW 6.4 km/h 6.4 km/h 98% 0.0 mm
21:24 0.3 °C 1.0 °C 1018.8 hPa Calm   6.4 km/h 98% 0.0 mm
21:28 0.3 °C 1.0 °C 1018.8 hPa Calm   6.4 km/h 98% 0.0 mm
21:33 0.2 °C 0.0 °C 1018.8 hPa Calm   6.4 km/h 98% 0.0 mm
21:38 0.3 °C 1.0 °C 1018.8 hPa WSW 5.8 km/h 6.4 km/h 98% 0.0 mm
21:42 0.4 °C 1.0 °C 1018.8 hPa Calm   6.4 km/h 98% 0.0 mm
21:47 0.4 °C 1.0 °C 1018.8 hPa West 6.9 km/h 6.9 km/h 98% 0.0 mm
21:52 0.4 °C 1.0 °C 1018.8 hPa West 6.1 km/h 8.7 km/h 98% 0.0 mm
21:57 0.4 °C 1.0 °C 1018.8 hPa Calm   8.7 km/h 98% 0.0 mm
21:58 0.4 °C 1.0 °C 1018.8 hPa WSW 4.0 km/h 8.7 km/h 98% 0.0 mm
22:04 0.5 °C 1.0 °C 1018.8 hPa West 4.3 km/h 6.9 km/h 98% 0.0 mm
22:09 0.5 °C 1.0 °C 1018.8 hPa Calm   6.9 km/h 98% 0.0 mm
22:13 0.5 °C 1.0 °C 1018.8 hPa West 6.4 km/h 6.9 km/h 98% 0.0 mm
22:14 0.6 °C 1.0 °C 1018.8 hPa West 5.8 km/h 6.9 km/h 98% 0.0 mm
22:18 0.6 °C 1.0 °C 1018.8 hPa West 6.1 km/h 7.9 km/h 98% 0.0 mm
22:20 0.6 °C 1.0 °C 1018.8 hPa WSW 6.4 km/h 7.9 km/h 98% 0.0 mm
22:23 0.7 °C 1.0 °C 1018.8 hPa Calm   7.9 km/h 98% 0.0 mm
22:24 0.7 °C 1.0 °C 1018.8 hPa Calm   7.9 km/h 98% 0.0 mm
22:29 0.7 °C 1.0 °C 1018.8 hPa Calm   7.6 km/h 98% 0.0 mm
22:31 0.7 °C 1.0 °C 1018.8 hPa Calm   6.1 km/h 98% 0.0 mm
22:36 0.7 °C 1.0 °C 1018.8 hPa Calm   6.1 km/h 98% 0.0 mm
22:39 0.6 °C 1.0 °C 1018.8 hPa Calm     98% 0.0 mm
22:44 0.5 °C 1.0 °C 1018.8 hPa Calm     98% 0.0 mm
22:45 0.5 °C 1.0 °C 1018.8 hPa Calm     98% 0.0 mm
22:50 0.4 °C 1.0 °C 1018.8 hPa Calm     98% 0.0 mm
22:55 0.4 °C 1.0 °C 1018.8 hPa Calm     98% 0.0 mm
22:57 0.4 °C 1.0 °C 1018.8 hPa Calm     98% 0.0 mm
23:01 0.4 °C 1.0 °C 1018.8 hPa West 5.0 km/h 6.1 km/h 98% 0.0 mm
23:06 0.5 °C 1.0 °C 1018.8 hPa Calm   6.1 km/h 98% 0.0 mm
23:07 0.5 °C 1.0 °C 1018.8 hPa Calm   6.1 km/h 98% 0.0 mm
23:08 0.5 °C 1.0 °C 1018.8 hPa Calm   6.1 km/h 98% 0.0 mm
23:13 0.5 °C 1.0 °C 1018.8 hPa Calm   5.0 km/h 98% 0.0 mm
23:18 0.6 °C 1.0 °C 1018.8 hPa Calm   6.1 km/h 98% 0.0 mm
23:19 0.6 °C 1.0 °C 1018.8 hPa Calm   6.1 km/h 98% 0.0 mm
23:20 0.6 °C 1.0 °C 1018.8 hPa Calm   6.1 km/h 98% 0.0 mm
23:25 0.6 °C 1.0 °C 1018.8 hPa Calm     98% 0.0 mm
23:26 0.6 °C 1.0 °C 1018.8 hPa Calm     98% 0.0 mm
23:31 0.6 °C 1.0 °C 1018.8 hPa Calm     98% 0.0 mm
23:33 0.6 °C 1.0 °C 1018.8 hPa Calm     98% 0.0 mm
23:38 0.6 °C 1.0 °C 1018.8 hPa Calm     98% 0.0 mm
23:39 0.5 °C 1.0 °C 1018.8 hPa Calm     98% 0.0 mm
23:44 0.4 °C 1.0 °C 1018.8 hPa Calm     98% 0.0 mm
23:45 0.4 °C 1.0 °C 1018.8 hPa Calm     98% 0.0 mm
23:47 0.4 °C 1.0 °C 1018.8 hPa Calm     98% 0.0 mm
23:52 0.4 °C 1.0 °C 1018.8 hPa Calm   5.5 km/h 98% 0.0 mm
23:53 0.4 °C 1.0 °C 1018.8 hPa Calm   5.5 km/h 98% 0.0 mm
23:54 0.3 °C 1.0 °C 1018.8 hPa Calm   5.5 km/h 98% 0.0 mm
23:59 0.3 °C 1.0 °C 1019.9 hPa Calm   5.5 km/h 98% 0.0 mm
Données Historique de Météo Turbie

Mise a jour : 20/05/2018 19:26:13
Généré par Cumulus 1.9.4 (1099)